Flag for U.S.A. Weather past 2 weeks in Fall River, Massachusetts, U.S.A.

Now
84 °F

Passing clouds.


Feels Like: 84 °F
Forecast: 63 / 82 °F
Wind: 7 mph from Northeast

Location: New Bedford Regional Airport

Current Time: Sep 1, 2015 at 3:06:58 PM

Latest Report: Sep 1, 2015 at 1:53 PM


Visibility: 10 mi

Pressure: 30.03 "Hg

Humidity: 45%

Dew point: 60 °F

Location of Fall RiverLocation

Historic Weather in Fall River — Graph

°F

Fall River temperature yesterday

Maximum temperature yesterday: 87 °F (at 2:53 PM)
Minimum temperature yesterday: 67 °F (at 5:53 AM)
Average temperature yesterday: 78 °F

Past Weeks' High & Low Weather Summary

 TemperatureHumidityPressure
High89 °F (Aug 18, 12:53 PM)100% (Aug 22, 4:04 AM)30.20 "Hg (Aug 22, 4:04 AM)
Low54 °F (Aug 29, 5:53 AM)42% (Aug 27, 2:53 PM)29.85 "Hg (Aug 26, 3:53 AM)
Average74 °F79%30.01 "Hg
* Reported Aug 17 1:53 PM — Sep 1 1:53 PM, Fall River, Weather by CustomWeather, © 2015

Note: Actual official high and low records may vary slightly from our data, if they occured in-between our weather recording intervals... More about our weather records

Advertising

Fall River weather history for previous 24 hours

 ConditionsComfort  
Time TempWeatherWind HumidityBarometerVisibility
1:53 PM
Tue, Sep 1
84 °FPassing clouds.7 mph45%30.03 "Hg10 mi
12:53 PM82 °FPassing clouds.3 mph48%30.03 "Hg10 mi
11:53 AM80 °FScattered clouds.5 mph51%30.04 "Hg10 mi
10:53 AM80 °FScattered clouds.6 mph54%30.04 "Hg10 mi
9:53 AM78 °FSunny.8 mph58%30.03 "Hg10 mi
8:53 AM75 °FSunny.9 mph64%30.02 "Hg10 mi
7:53 AM71 °FSunny.5 mph78%30.01 "Hg10 mi
6:53 AM67 °FClear.No wind87%30.00 "Hg9 mi
5:53 AM66 °FClear.No wind90%29.98 "Hg10 mi
4:53 AM67 °FClear.No wind87%29.96 "Hg10 mi
3:53 AM67 °FClear.No wind90%29.95 "Hg10 mi
2:53 AM68 °FClear.No wind87%29.96 "Hg10 mi
1:53 AM68 °FFog.No wind93%29.95 "Hg5 mi
12:53 AM69 °FClear.No wind90%29.95 "Hg9 mi
10:53 PM
Mon, Aug 31
73 °FClear.5 mph88%29.93 "Hg10 mi
9:53 PM75 °FClear.6 mph82%29.92 "Hg10 mi
8:53 PM76 °FClear.6 mph80%29.92 "Hg10 mi
7:53 PM77 °FSunny.6 mph77%29.90 "Hg10 mi
6:53 PM81 °FSunny.9 mph60%29.89 "Hg10 mi
5:53 PM84 °FSunny.12 mph55%29.89 "Hg10 mi
4:53 PM85 °FSunny.10 mph51%29.88 "Hg10 mi
3:53 PM86 °FSunny.12 mph48%29.88 "Hg10 mi
Weather by CustomWeather, © 2015

See weather overviewHow to use our weather pages